Goldsboro, NC

10:18 AM EDT on June 25, 2018 (GMT -0400)
Seymour Johnson Air Force Base

Weather History for KGSB - December, 2017

Change the Weather History Date:

Thursday, December 7, 2017

  Actual Average Record
Temperature  
Mean Temperature 44 °F -  
Max Temperature 49 °F 57 °F 82 °F (1998)
Min Temperature 40 °F 38 °F 19 °F (2002)
Degree Days  
Heating Degree Days 20    
Moisture  
Dew Point 37 °F    
Average Humidity 80    
Maximum Humidity 93    
Minimum Humidity 46    
Precipitation  
Precipitation 0.06 in - - ()
Sea Level Pressure  
Sea Level Pressure 30.12 in    
Wind  
Wind Speed 2 mph (West)    
Max Wind Speed 6 mph    
Max Gust Speed -    
Visibility 10 miles    
Events Rain    
Averages and records for this station are not official NWS values.
T = Trace of Precipitation, MM = Missing Value Source: NWS Daily Summary

Daily Weather History Graph

Daily Weather History Graph

Search for Another Location

Airport or City:

Astronomy

Dec. 07, 2017 Rise Set
Actual Time 7:07 AM EST 4:59 PM EST
Civil Twilight 6:39 AM EST 5:27 PM EST
Nautical Twilight 6:07 AM EST 5:58 PM EST
Astronomical Twilight 5:37 AM EST 6:29 PM EST
Moon 9:39 PM EST (12/7) 10:48 AM EST (12/7)
Length of Visible Light 10h 47m
Length of Day
9h 51m
Waning Gibbous, 78% of the Moon is Illuminated
Dec 7
Waning Gibbous
Dec 10
Last Quarter
Dec 18
New
Dec 26
First Quarter
Jan 1
Full

Hourly Weather History & Observations

Time (EST) Temp. Windchill Dew Point Humidity Pressure Visibility Wind Dir Wind Speed Gust Speed Precip Events Conditions
12:08 AM 41.0 °F - 37.4 °F 87% 30.11 in 10.0 mi Calm Calm - N/A   Mostly Cloudy
12:56 AM 41.0 °F 38.0 °F 37.8 °F 88% 30.11 in 10.0 mi West 4.6 mph - 0.00 in   Partly Cloudy
1:09 AM 41.0 °F 38.0 °F 37.4 °F 87% 30.11 in 10.0 mi WNW 4.6 mph - N/A Rain Light Rain
1:12 AM 41.0 °F 37.1 °F 37.4 °F 87% 30.11 in 10.0 mi WNW 5.8 mph - N/A   Clear
1:19 AM 41.0 °F 38.0 °F 37.4 °F 87% 30.11 in 10.0 mi NW 4.6 mph - N/A Rain Light Rain
1:35 AM 41.0 °F 38.0 °F 37.4 °F 87% 30.12 in 10.0 mi NW 4.6 mph - N/A   Scattered Clouds
1:42 AM 41.0 °F 38.0 °F 37.4 °F 87% 30.11 in 10.0 mi WNW 4.6 mph - N/A Rain Light Rain
1:56 AM 40.8 °F 38.8 °F 37.0 °F 86% 30.12 in 10.0 mi WNW 3.5 mph - 0.01 in Rain Light Rain
2:13 AM 41.0 °F - 37.4 °F 87% 30.11 in 10.0 mi Calm Calm - N/A   Scattered Clouds
2:15 AM 41.0 °F - 37.4 °F 87% 30.11 in 10.0 mi Calm Calm - N/A Rain Light Rain
2:43 AM 41.0 °F 39.0 °F 37.4 °F 87% 30.13 in 10.0 mi WSW 3.5 mph - N/A   Mostly Cloudy
2:56 AM 40.5 °F - 37.8 °F 90% 30.13 in 10.0 mi Calm Calm - 0.01 in   Scattered Clouds
3:12 AM 41.0 °F - 37.4 °F 87% 30.12 in 10.0 mi Calm Calm - N/A Rain Light Rain
3:25 AM 41.0 °F - 39.2 °F 93% 30.11 in 10.0 mi Calm Calm - N/A   Mostly Cloudy
3:56 AM 40.8 °F 38.8 °F 38.1 °F 90% 30.12 in 10.0 mi SW 3.5 mph - 0.00 in   Overcast
4:56 AM 40.8 °F 38.8 °F 37.8 °F 89% 30.12 in 10.0 mi SW 3.5 mph - N/A   Mostly Cloudy
5:56 AM 41.4 °F 39.4 °F 38.1 °F 88% 30.13 in 10.0 mi SW 3.5 mph - N/A   Partly Cloudy
6:56 AM 41.9 °F 40.0 °F 38.8 °F 89% 30.14 in 10.0 mi West 3.5 mph - N/A   Partly Cloudy
7:03 AM 42.8 °F 41.1 °F 39.2 °F 87% 30.14 in 10.0 mi West 3.5 mph - N/A Rain Light Rain
7:17 AM 42.8 °F 41.1 °F 39.2 °F 87% 30.14 in 10.0 mi West 3.5 mph - N/A   Scattered Clouds
7:47 AM 42.8 °F 41.1 °F 39.2 °F 87% 30.14 in 10.0 mi West 3.5 mph - N/A Rain Light Rain
7:56 AM 42.6 °F 40.9 °F 39.0 °F 87% 30.14 in 10.0 mi WSW 3.5 mph - 0.00 in Rain Light Rain
7:57 AM 42.8 °F 41.1 °F 39.2 °F 87% 30.14 in 10.0 mi WSW 3.5 mph - N/A   Partly Cloudy
7:58 AM 42.8 °F 41.1 °F 39.2 °F 87% 30.15 in 10.0 mi WSW 3.5 mph - N/A Rain Light Rain
8:03 AM 42.8 °F 41.1 °F 39.2 °F 87% 30.14 in 10.0 mi WSW 3.5 mph - N/A   Clear
8:56 AM 43.7 °F 42.1 °F 38.8 °F 83% 30.16 in 10.0 mi West 3.5 mph - 0.00 in   Mostly Cloudy
9:56 AM 45.5 °F - 36.7 °F 71% 30.18 in 10.0 mi Calm Calm - N/A   Mostly Cloudy
10:56 AM 47.1 °F - 33.6 °F 59% 30.17 in 10.0 mi NNW 4.6 mph - N/A   Mostly Cloudy
11:56 AM 47.1 °F - 31.3 °F 54% 30.14 in 10.0 mi NW 4.6 mph - N/A   Scattered Clouds
12:56 PM 47.3 °F - 31.5 °F 54% 30.12 in 10.0 mi North 4.6 mph - N/A   Partly Cloudy
1:56 PM 48.7 °F - 29.5 °F 47% 30.10 in 10.0 mi NNW 5.8 mph - N/A   Mostly Cloudy
2:56 PM 49.1 °F - 29.3 °F 46% 30.09 in 10.0 mi Calm Calm - N/A   Clear
3:56 PM 47.8 °F - 29.1 °F 48% 30.09 in 10.0 mi Calm Calm - N/A   Scattered Clouds
4:56 PM 46.0 °F - 32.5 °F 59% 30.09 in 10.0 mi Calm Calm - N/A   Mostly Cloudy
5:56 PM 44.2 °F - 35.1 °F 70% 30.10 in 10.0 mi Calm Calm - N/A   Mostly Cloudy
6:56 PM 43.9 °F - 35.1 °F 71% 30.12 in 10.0 mi Calm Calm - N/A   Mostly Cloudy
7:56 PM 44.1 °F - 35.2 °F 71% 30.13 in 10.0 mi Calm Calm - N/A   Scattered Clouds
8:56 PM 43.2 °F - 37.8 °F 81% 30.12 in 10.0 mi Calm Calm - N/A   Partly Cloudy
9:53 PM 44.6 °F - 37.4 °F 76% 30.13 in 10.0 mi Calm Calm - N/A Rain Light Rain
9:56 PM 44.1 °F - 37.6 °F 78% 30.12 in 10.0 mi Calm Calm - 0.00 in Rain Light Rain
10:56 PM 43.2 °F 41.5 °F 38.1 °F 82% 30.13 in 10.0 mi West 3.5 mph - 0.02 in Rain Light Rain
11:21 PM 42.8 °F - 39.2 °F 87% 30.13 in 10.0 mi Calm Calm - N/A   Mostly Cloudy
11:37 PM 42.8 °F - 39.2 °F 87% 30.12 in 10.0 mi Calm Calm - N/A Rain Light Rain
11:56 PM 42.1 °F - 39.6 °F 91% 30.11 in 10.0 mi Calm Calm - 0.02 in Rain Light Rain